Вернуться в каталог

DELTA 1 DEB

АктивенSSO
NORAD 10826·DEBRIS·🇺🇸 United States

Запущен Jul 29, 1976 с Vandenberg Space Force Base

Loading…

Ближайшие Пролёты (ближайшие 24 часа)

TLE

СвежийSource: Space-Track

Эпоха: Sep 14, 2026, 06:41 UTC

1 10826U 76077BW  26257.27887522  .00001923  00000-0  10833-1 0  9998
2 10826 101.9398 175.7281 0141889 298.5421 214.5363 12.60603139260220

Отслеживайте DELTA 1 DEB в реальном времени с AllMySat

Download on the App Store